Weslaco, TX

4:28 AM CDT on August 31, 2016 (GMT -0500)
Weslaco

Weather History for KT65 - November, 2012

Change the Weather History Date:

Friday, November 9, 2012

  Actual Average (KMFE) Record (KMFE)
Temperature  
Mean Temperature 75 °F 71 °F  
Max Temperature 86 °F 82 °F 93 °F (1964)
Min Temperature 64 °F 61 °F 34 °F (1880)
Degree Days  
Heating Degree Days 0 1  
Month to date heating degree days 9  
Since 1 July heating degree days 14  
Cooling Degree Days 10 7  
Month to date cooling degree days 75  
Year to date cooling degree days 4257  
Growing Degree Days 25 (Base 50)    
Moisture  
Dew Point 59 °F    
Average Humidity 60    
Maximum Humidity 88    
Minimum Humidity 33    
Precipitation  
Precipitation 0.00 in 0.03 in 0.62 in (1957)
Month to date precipitation 0.35  
Year to date precipitation 20.47  
Sea Level Pressure  
Sea Level Pressure 30.01 in    
Wind  
Wind Speed 10 mph (SSE)    
Max Wind Speed 24 mph    
Max Gust Speed 32 mph    
Visibility 10 miles    
Events      
T = Trace of Precipitation, MM = Missing Value Source: NWS Daily Summary

Daily Weather History Graph

Daily Weather History Graph

Search for Another Location

Airport or City:

Trip Planner

Search our weather history database for the weather conditions in past years. The results will help you decide how hot, cold, wet, or windy it might be!

Date:

Astronomy

Nov. 09, 2012 Rise Set
Actual Time 6:46 AM CST 5:44 PM CST
Civil Twilight 6:22 AM CST 6:08 PM CST
Nautical Twilight 5:54 AM CST 6:36 PM CST
Astronomical Twilight 5:27 AM CST 7:03 PM CST
Moon 2:12 AM CST (11/9) 2:36 PM CST (11/9)
Length of Visible Light 11h 46m
Length of Day
10h 58m
Waning Crescent, 23% of the Moon is Illuminated
Nov 9
Waning Crescent
Nov 13
New
Nov 20
First Quarter
Nov 28
Full
Dec 6
Last Quarter

Hourly Weather History & Observations

Time (CST) Temp. Heat Index Dew Point Humidity Pressure Visibility Wind Dir Wind Speed Gust Speed Precip Events Conditions
12:15 AM 69.8 °F - 60.8 °F 73% 30.05 in 10.0 mi SSE 8.1 mph - N/A   Unknown
12:35 AM 69.8 °F - 60.8 °F 73% 30.05 in 10.0 mi SSE 6.9 mph - N/A   Unknown
12:55 AM 69.8 °F - 60.8 °F 73% 30.05 in 10.0 mi SE 6.9 mph - N/A   Unknown
1:15 AM 68.0 °F - 60.8 °F 78% 30.05 in 10.0 mi SE 4.6 mph - N/A   Unknown
1:35 AM 68.0 °F - 60.8 °F 78% 30.04 in 10.0 mi SE 5.8 mph - N/A   Unknown
1:55 AM 68.0 °F - 60.8 °F 78% 30.04 in 10.0 mi SSE 4.6 mph - N/A   Unknown
2:15 AM 68.0 °F - 60.8 °F 78% 30.03 in 10.0 mi SE 6.9 mph - N/A   Unknown
2:35 AM 68.0 °F - 60.8 °F 78% 30.02 in 10.0 mi SE 5.8 mph - N/A   Unknown
2:55 AM 68.0 °F - 60.8 °F 78% 30.02 in 10.0 mi SSE 6.9 mph - N/A   Unknown
3:15 AM 68.0 °F - 60.8 °F 78% 30.02 in 10.0 mi SE 6.9 mph - N/A   Unknown
3:35 AM 68.0 °F - 60.8 °F 78% 30.02 in 10.0 mi SE 4.6 mph - N/A   Unknown
3:55 AM 68.0 °F - 60.8 °F 78% 30.02 in 10.0 mi SSE 6.9 mph - N/A   Unknown
4:15 AM 68.0 °F - 60.8 °F 78% 30.02 in 10.0 mi SSE 5.8 mph - N/A   Unknown
4:35 AM 68.0 °F - 60.8 °F 78% 30.02 in 10.0 mi SSE 6.9 mph - N/A   Unknown
4:55 AM 68.0 °F - 60.8 °F 78% 30.01 in 10.0 mi SE 6.9 mph - N/A   Unknown
5:15 AM 68.0 °F - 60.8 °F 78% 30.01 in 10.0 mi SSE 8.1 mph - N/A   Unknown
5:35 AM 68.0 °F - 60.8 °F 78% 30.01 in 10.0 mi SSE 8.1 mph - N/A   Unknown
6:15 AM 66.2 °F - 60.8 °F 83% 30.01 in 10.0 mi SSE 6.9 mph - N/A   Unknown
6:35 AM 66.2 °F - 60.8 °F 83% 30.02 in 10.0 mi South 5.8 mph - N/A   Unknown
6:55 AM 64.4 °F - 60.8 °F 88% 30.03 in 10.0 mi SSE 5.8 mph - N/A   Unknown
7:15 AM 66.2 °F - 60.8 °F 83% 30.03 in 10.0 mi SSE 6.9 mph - N/A   Unknown
7:35 AM 68.0 °F - 60.8 °F 78% 30.03 in 10.0 mi SSE 8.1 mph - N/A   Unknown
7:55 AM 69.8 °F - 60.8 °F 73% 30.04 in 10.0 mi SSE 8.1 mph - N/A   Unknown
8:15 AM 71.6 °F - 62.6 °F 73% 30.04 in 10.0 mi SSE 8.1 mph - N/A   Unknown
8:55 AM 75.2 °F - 62.6 °F 65% 30.05 in 10.0 mi SSE 11.5 mph - N/A   Unknown
9:15 AM 78.8 °F - 62.6 °F 57% 30.06 in 10.0 mi South 13.8 mph 18.4 mph N/A   Unknown
9:35 AM 80.6 °F 81.8 °F 62.6 °F 54% 30.06 in 10.0 mi South 18.4 mph 25.3 mph N/A   Unknown
9:55 AM 80.6 °F 81.5 °F 60.8 °F 51% 30.06 in 10.0 mi SSE 21.9 mph 29.9 mph N/A   Unknown
10:15 AM 82.4 °F 82.5 °F 59.0 °F 45% 30.06 in 10.0 mi SSE 19.6 mph 32.2 mph N/A   Unknown
10:35 AM 82.4 °F 82.5 °F 59.0 °F 45% 30.06 in 10.0 mi SSE 21.9 mph 31.1 mph N/A   Unknown
10:55 AM 82.4 °F 82.5 °F 59.0 °F 45% 30.06 in 10.0 mi SSE 24.2 mph 29.9 mph N/A   Unknown
11:15 AM 84.2 °F 83.8 °F 59.0 °F 42% 30.05 in 10.0 mi SSE 24.2 mph 29.9 mph N/A   Unknown
11:35 AM 86.0 °F 85.4 °F 59.0 °F 40% 30.04 in 10.0 mi SSE 21.9 mph 31.1 mph N/A   Unknown
11:55 AM 86.0 °F 85.4 °F 59.0 °F 40% 30.03 in 10.0 mi SSE 21.9 mph 29.9 mph N/A   Unknown
12:15 PM 86.0 °F 84.9 °F 57.2 °F 37% 30.02 in 10.0 mi SSE 21.9 mph 29.9 mph N/A   Unknown
12:35 PM 86.0 °F 85.4 °F 59.0 °F 40% 30.01 in 10.0 mi SSE 21.9 mph 27.6 mph N/A   Unknown
12:55 PM 86.0 °F 84.2 °F 53.6 °F 33% 30.00 in 10.0 mi SSE 18.4 mph 26.5 mph N/A   Unknown
1:15 PM 86.0 °F 84.5 °F 55.4 °F 35% 29.98 in 10.0 mi SSE 23.0 mph 29.9 mph N/A   Unknown
1:35 PM 86.0 °F 84.2 °F 53.6 °F 33% 29.97 in 10.0 mi South 16.1 mph 27.6 mph N/A   Unknown
1:55 PM 86.0 °F 84.2 °F 53.6 °F 33% 29.96 in 10.0 mi SE 16.1 mph 28.8 mph N/A   Unknown
2:15 PM 86.0 °F 84.5 °F 55.4 °F 35% 29.96 in 10.0 mi SSE 19.6 mph 26.5 mph N/A   Unknown
2:35 PM 86.0 °F 84.5 °F 55.4 °F 35% 29.96 in 10.0 mi SSE 20.7 mph 27.6 mph N/A   Unknown
2:55 PM 86.0 °F 84.9 °F 57.2 °F 37% 29.96 in 10.0 mi South 21.9 mph 25.3 mph N/A   Unknown
3:15 PM 84.2 °F 83.5 °F 57.2 °F 40% 29.95 in 10.0 mi SSE 23.0 mph 29.9 mph N/A   Unknown
3:35 PM 84.2 °F 83.5 °F 57.2 °F 40% 29.95 in 10.0 mi SSE 18.4 mph 31.1 mph N/A   Unknown
3:55 PM 84.2 °F 83.0 °F 55.4 °F 37% 29.95 in 10.0 mi SSE 18.4 mph 27.6 mph N/A   Unknown
4:15 PM 82.4 °F 81.7 °F 55.4 °F 39% 29.96 in 10.0 mi SSE 15.0 mph 26.5 mph N/A   Unknown
4:35 PM 82.4 °F 81.7 °F 55.4 °F 39% 29.96 in 10.0 mi SSE 15.0 mph 23.0 mph N/A   Unknown
4:55 PM 80.6 °F 80.5 °F 55.4 °F 42% 29.96 in 10.0 mi SSE 16.1 mph 24.2 mph N/A   Unknown
5:15 PM 80.6 °F 80.8 °F 57.2 °F 45% 29.96 in 10.0 mi SE 13.8 mph 19.6 mph N/A   Unknown
5:35 PM 78.8 °F - 59.0 °F 51% 29.96 in 10.0 mi SE 17.3 mph 24.2 mph N/A   Unknown
5:55 PM 78.8 °F - 59.0 °F 51% 29.97 in 10.0 mi SE 12.7 mph 19.6 mph N/A   Unknown
6:15 PM 77.0 °F - 59.0 °F 54% 29.97 in 10.0 mi SE 12.7 mph 19.6 mph N/A   Unknown
6:35 PM 77.0 °F - 59.0 °F 54% 29.98 in 10.0 mi SE 10.4 mph 16.1 mph N/A   Unknown
6:55 PM 75.2 °F - 59.0 °F 57% 29.98 in 10.0 mi SE 8.1 mph - N/A   Unknown
7:15 PM 73.4 °F - 59.0 °F 61% 29.99 in 10.0 mi SE 6.9 mph - N/A   Unknown
7:35 PM 73.4 °F - 59.0 °F 61% 30.00 in 10.0 mi SE 6.9 mph - N/A   Unknown
7:55 PM 73.4 °F - 59.0 °F 61% 30.00 in 10.0 mi SE 6.9 mph - N/A   Unknown
8:15 PM 71.6 °F - 59.0 °F 64% 30.01 in 10.0 mi SE 6.9 mph - N/A   Unknown
8:35 PM 71.6 °F - 59.0 °F 64% 30.01 in 10.0 mi SE 6.9 mph - N/A   Unknown
8:55 PM 71.6 °F - 59.0 °F 64% 30.02 in 10.0 mi SE 6.9 mph - N/A   Unknown
9:15 PM 71.6 °F - 59.0 °F 64% 30.02 in 10.0 mi SE 9.2 mph - N/A   Unknown
9:35 PM 71.6 °F - 59.0 °F 64% 30.02 in 10.0 mi SE 8.1 mph - N/A   Unknown
9:55 PM 71.6 °F - 59.0 °F 64% 30.02 in 10.0 mi SE 8.1 mph - N/A   Unknown
10:15 PM 71.6 °F - 59.0 °F 64% 30.03 in 10.0 mi SE 8.1 mph - N/A   Unknown
10:35 PM 71.6 °F - 59.0 °F 64% 30.03 in 10.0 mi SE 8.1 mph - N/A   Unknown
11:15 PM 69.8 °F - 59.0 °F 68% 30.03 in 10.0 mi SSE 5.8 mph - N/A   Unknown
11:35 PM 69.8 °F - 59.0 °F 68% 30.03 in 10.0 mi SSE 6.9 mph - N/A   Unknown
11:55 PM 68.0 °F - 59.0 °F 73% 30.02 in 10.0 mi SSE 6.9 mph - N/A   Unknown